Powrót do katalogu

IRIDIUM 33 DEB

AktywnyPO
NORAD 46734·DEBRIS·🇺🇸 United States

Wystrzelony Sep 14, 1997 z Baikonur Cosmodrome

Loading…

Następne Przeloty (najbliższe 24 godziny)

TLE

Starzejące sięSource: Space-Track

Epoka: Sep 6, 2026, 06:35 UTC

1 46734U 97051ABR 26249.27443493  .00001384  00000-0  40057-3 0  9990
2 46734  86.2584 245.2183 0039366 164.2144 252.2692 14.43393979668687

Śledź IRIDIUM 33 DEB w czasie rzeczywistym z AllMySat

Download on the App Store